Palacios, TX

8:01 PM CDT on April 26, 2018 (GMT -0500)
Palacios Municipal

Weather History for KPSX - December, 2011

Change the Weather History Date:

Thursday, December 8, 2011

  Actual Average Record
Temperature  
Mean Temperature 46 °F -  
Max Temperature 63 °F 67 °F 81 °F (2012)
Min Temperature 28 °F 48 °F 28 °F (2011)
Degree Days  
Heating Degree Days 20    
Moisture  
Dew Point 40 °F    
Average Humidity 77    
Maximum Humidity 93    
Minimum Humidity 54    
Precipitation  
Precipitation 0.00 in - - ()
Sea Level Pressure  
Sea Level Pressure 30.24 in    
Wind  
Wind Speed 6 mph (ENE)    
Max Wind Speed 16 mph    
Max Gust Speed -    
Visibility 10 miles    
Events      
Averages and records for this station are not official NWS values.
T = Trace of Precipitation, MM = Missing Value Source: NWS Daily Summary

Daily Weather History Graph

Daily Weather History Graph

Search for Another Location

Airport or City:

Astronomy

Dec. 08, 2011 Rise Set
Actual Time 7:05 AM CST 5:28 PM CST
Civil Twilight 6:39 AM CST 5:53 PM CST
Nautical Twilight 6:10 AM CST 6:23 PM CST
Astronomical Twilight 5:41 AM CST 6:52 PM CST
Moon 4:07 PM CST (12/8) 5:20 AM CST (12/8)
Length of Visible Light 11h 14m
Length of Day
10h 22m
Waxing Gibbous, 97% of the Moon is Illuminated
Dec 8
Waxing Gibbous
Dec 10
Full
Dec 17
Last Quarter
Dec 24
New
Jan 1
First Quarter

Hourly Weather History & Observations

Time (CST) Temp. Windchill Dew Point Humidity Pressure Visibility Wind Dir Wind Speed Gust Speed Precip Events Conditions
12:53 AM 30.9 °F 26.2 °F 27.0 °F 85% 30.32 in 10.0 mi NE 4.6 mph - N/A   Clear
1:53 AM 32.0 °F - 27.0 °F 82% 30.33 in 10.0 mi Calm Calm - N/A   Clear
2:53 AM 30.9 °F - 26.1 °F 82% 30.31 in 10.0 mi Calm Calm - N/A   Clear
3:53 AM 30.9 °F - 27.0 °F 85% 30.30 in 10.0 mi Calm Calm - N/A   Clear
4:53 AM 30.0 °F 26.5 °F 27.0 °F 88% 30.30 in 10.0 mi North 3.5 mph - N/A   Clear
5:53 AM 28.9 °F 21.9 °F 26.1 °F 89% 30.30 in 10.0 mi NNE 6.9 mph - N/A   Clear
6:53 AM 28.0 °F 21.7 °F 26.1 °F 92% 30.31 in 10.0 mi NE 5.8 mph - N/A   Clear
7:53 AM 32.0 °F 26.4 °F 28.9 °F 88% 30.32 in 10.0 mi NE 5.8 mph - N/A   Clear
8:53 AM 42.8 °F 38.6 °F 35.6 °F 76% 30.34 in 10.0 mi NE 6.9 mph - N/A   Clear
9:53 AM 50.0 °F - 36.0 °F 59% 30.33 in 10.0 mi ENE 10.4 mph - N/A   Clear
10:53 AM 54.0 °F - 41.0 °F 62% 30.30 in 10.0 mi ENE 11.5 mph - N/A   Clear
11:53 AM 57.9 °F - 44.1 °F 60% 30.27 in 10.0 mi East 10.4 mph - N/A   Clear
12:53 PM 62.1 °F - 46.0 °F 56% 30.23 in 10.0 mi ESE 12.7 mph - N/A   Clear
1:53 PM 63.0 °F - 46.0 °F 54% 30.19 in 10.0 mi East 12.7 mph - N/A   Clear
2:53 PM 62.6 °F - 46.4 °F 55% 30.17 in 10.0 mi ESE 16.1 mph - N/A   Clear
3:53 PM 60.8 °F - 48.2 °F 63% 30.16 in 10.0 mi ESE 15.0 mph - N/A   Clear
4:53 PM 57.9 °F - 48.0 °F 70% 30.15 in 10.0 mi East 11.5 mph - N/A   Clear
5:53 PM 55.9 °F - 48.9 °F 77% 30.15 in 10.0 mi East 10.4 mph - N/A   Overcast
6:53 PM 55.0 °F - 48.9 °F 80% 30.15 in 10.0 mi East 10.4 mph - N/A   Overcast
7:53 PM 55.0 °F - 50.0 °F 83% 30.16 in 10.0 mi ENE 11.5 mph - N/A   Overcast
8:53 PM 55.0 °F - 51.1 °F 86% 30.16 in 10.0 mi East 10.4 mph - N/A   Overcast
9:53 PM 55.0 °F - 52.0 °F 89% 30.17 in 10.0 mi ENE 6.9 mph - N/A   Overcast
10:53 PM 55.0 °F - 52.0 °F 89% 30.16 in 10.0 mi East 5.8 mph - N/A   Overcast
11:53 PM 55.0 °F - 53.1 °F 93% 30.15 in 10.0 mi East 6.9 mph - N/A   Overcast